GFSNE_sfc_rhum_105.txt.gz
RH
95 95 95 96 90 81 84 85 83 90 87 86 86 77 72 73 78 86 84 89 90 90 91 91 90 89 89 88 88 87 85 85 85 86 87 87 86 86
96 97 94 95 89 85 87 91 92 90 90 72 81 88 84 76 83 82 78 85 88 89 90 90 90 89 89 89 89 88 87 88 87 85 84 84 84 83
97 96 96 94 95 91 86 86 88 92 93 85 74 76 90 91 86 85 80 84 81 91 92 92 89 90 89 89 90 90 91 90 90 89 88 88 87 87
98 98 97 92 89 85 88 88 87 87 85 85 81 78 77 88 86 84 77 72 81 84 91 90 90 91 92 91 92 93 94 94 94 94 94 93 92 89
94 95 94 93 92 91 86 88 92 85 90 90 89 88 87 82 80 77 75 74 64 70 82 88 90 95 96 96 96 95 95 96 96 96 96 97 96 94
95 93 93 93 92 89 88 84 82 91 95 96 94 93 91 87 87 80 78 78 72 62 79 92 93 95 94 95 96 96 97 97 97 97 98 99 100 99
94 90 93 92 94 87 85 84 85 87 94 96 97 95 94 89 87 86 91 94 99 96 99 96 94 93 94 91 90 93 93 93 93 94 95 96 97 96
94 92 89 96 97 99 99 100 94 86 90 88 85 89 85 96 96 99 98 98 99 95 96 98 92 97 94 92 89 89 89 90 90 90 91 92 92 93
94 95 91 88 93 90 96 95 96 96 100 97 98 98 98 97 96 97 99 99 100 95 96 100 98 98 98 94 90 88 87 86 86 87 87 88 90 91
94 93 93 93 95 96 94 94 96 96 95 90 97 99 98 97 96 95 98 98 98 95 96 99 99 99 97 97 86 84 83 83 83 82 82 84 89 88
92 94 94 96 98 97 92 94 97 98 95 93 95 96 94 90 94 98 98 100 100 98 97 99 99 99 98 99 98 83 83 80 77 76 75 73 68 78
94 94 95 98 97 96 93 93 96 99 97 97 97 96 91 88 89 96 98 98 98 98 97 98 98 98 98 98 98 97 97 78 71 66 64 60 62 94
95 96 98 98 96 97 97 97 96 97 98 96 95 94 93 92 87 90 95 97 97 98 95 99 99 99 97 99 99 98 98 96 97 93 71 57 54 65
96 97 97 92 95 98 95 94 92 90 91 92 92 94 96 98 100 97 96 93 93 91 91 94 98 98 99 99 99 99 98 98 98 95 94 64 61 62
93 95 91 88 87 88 88 89 90 92 93 94 95 95 97 97 94 98 95 92 92 91 85 89 93 96 96 98 98 96 83 87 88 86 82 78 90 77
93 90 88 86 86 87 88 91 92 95 96 95 95 97 97 91 87 94 94 97 93 88 77 78 72 82 91 88 78 85 78 86 76 76 77 88 86 90
93 92 93 94 92 91 90 90 91 90 90 92 92 92 92 92 88 88 86 86 82 78 63 59 61 67 74 66 82 76 78 76 76 86 79 82 87 90
90 92 93 93 93 93 92 91 90 87 88 86 89 88 86 85 82 80 83 91 86 78 72 60 72 80 75 73 66 85 83 84 80 75 77 95 88 83
89 92 92 93 92 90 90 90 92 92 87 87 90 91 84 83 79 76 76 80 82 72 62 65 69 87 84 90 75 57 95 91 94 94 88 95 96 81
88 92 94 93 93 90 88 87 89 91 90 87 92 92 95 90 87 82 83 93 88 78 72 68 75 81 92 91 93 85 66 93 96 96 95 95 85 74
90 91 93 94 94 90 95 93 93 95 94 95 94 90 95 95 93 92 89 90 86 76 78 76 73 78 74 87 88 86 82 65 70 90 94 98 97 95
93 91 91 91 95 96 96 96 93 93 94 95 97 95 96 94 96 92 93 97 90 92 77 72 65 70 84 85 90 91 91 89 68 61 61 72 98 98
97 94 95 96 96 95 94 95 95 97 95 94 95 95 97 96 96 98 94 93 90 88 84 81 75 76 76 71 87 95 89 92 83 80 76 63 68 74

GFSNE_sfc_rhum_108.txt.gz
RH
96 96 94 96 93 93 87 81 83 97 86 88 85 83 73 74 78 82 81 89 91 91 91 91 90 89 90 89 88 87 86 85 86 87 87 88 89 88
96 95 93 95 97 96 93 92 88 88 90 81 88 84 80 72 80 84 80 89 92 91 92 92 91 91 90 90 89 90 87 87 87 86 86 86 86 86
96 95 94 94 96 96 96 95 93 92 89 88 77 81 90 89 88 88 86 88 83 93 92 92 91 91 91 91 92 91 93 92 92 92 91 90 90 89
98 96 97 96 97 96 96 95 91 89 89 90 85 82 80 88 89 93 89 82 88 91 96 94 95 96 97 97 96 96 96 96 96 95 95 94 92 91
94 96 96 97 98 97 95 94 90 88 91 88 87 85 83 86 84 82 87 90 78 82 89 98 97 97 95 95 96 96 96 96 96 97 98 98 98 97
96 95 95 96 94 96 93 91 93 92 94 93 86 91 90 86 85 86 91 90 82 74 91 92 93 93 93 94 95 95 95 95 94 95 95 96 97 95
98 97 96 96 100 98 95 96 97 98 98 96 97 97 97 96 94 92 93 88 99 96 97 96 95 94 95 92 92 92 91 90 90 90 90 92 92 91
98 97 96 100 99 100 100 98 100 96 96 95 92 96 95 94 98 98 97 100 99 94 98 97 93 97 95 94 90 88 88 87 86 87 87 88 89 89
97 99 94 92 98 94 98 97 96 96 100 95 92 98 98 98 97 97 98 99 100 96 97 99 98 98 98 94 89 87 86 84 83 83 86 87 87 88
95 94 95 96 97 96 95 96 97 97 96 93 98 100 100 98 95 96 98 98 97 95 97 99 100 99 98 98 83 80 80 79 79 77 75 70 72 86
95 96 95 98 99 94 93 96 98 98 97 94 95 91 90 92 95 97 100 100 99 97 98 98 99 99 99 99 98 84 82 75 70 65 63 62 67 66
96 97 99 99 97 93 93 95 98 99 97 96 95 92 89 91 92 96 97 99 96 98 97 97 99 97 98 99 98 97 94 75 69 60 52 53 58 95
96 97 98 98 96 94 94 95 97 96 98 96 96 96 92 90 91 92 95 94 97 98 94 99 99 99 97 99 99 98 98 96 97 90 64 59 56 66
97 98 98 94 94 94 94 96 95 95 95 96 95 96 97 90 91 89 89 87 88 89 91 96 98 99 99 99 99 98 97 96 95 93 91 72 64 64
96 96 96 96 95 95 95 94 93 94 95 94 94 94 97 98 98 93 91 88 82 83 85 85 89 91 94 99 96 91 87 86 83 88 88 86 90 84
94 94 93 93 93 94 92 91 93 94 94 95 96 95 93 91 92 96 95 89 80 76 66 73 74 82 85 80 78 87 81 87 74 76 78 88 82 92
95 95 95 94 93 92 91 91 92 92 93 94 93 93 92 90 89 88 84 78 81 74 61 62 66 72 72 70 84 78 77 74 74 85 78 85 83 88
92 94 96 96 96 95 95 94 93 91 91 89 91 88 85 85 82 78 80 86 80 71 68 62 79 83 74 71 67 85 82 83 78 73 72 93 89 90
92 95 95 95 94 92 92 92 95 93 89 89 90 91 87 85 84 82 80 81 79 68 60 65 70 79 78 83 70 56 95 88 91 90 86 92 96 82
93 95 96 96 94 91 90 91 91 90 89 86 90 92 94 89 88 85 82 92 87 80 75 69 77 81 88 90 91 84 64 94 95 95 95 95 88 78
93 94 96 94 94 92 95 96 96 96 97 96 96 94 97 94 93 93 92 91 89 78 79 78 75 81 85 85 90 87 83 65 69 89 94 99 99 97
95 95 95 95 97 96 97 97 95 95 95 95 98 99 97 98 98 97 97 95 92 95 80 75 67 72 84 80 93 95 91 89 67 61 63 71 98 99
99 97 98 98 97 96 94 96 96 99 97 97 98 98 99 99 98 98 96 96 93 89 88 83 78 80 78 80 89 96 90 88 83 81 84 63 68 71

GFSNE_sfc_rhum_114.txt.gz
RH
96 96 96 92 94 92 89 84 86 95 96 96 97 84 82 84 86 87 87 92 94 94 93 92 91 90 90 90 90 90 90 92 92 93 94 93 92 90
97 97 96 95 97 95 94 91 91 87 90 91 93 92 84 80 84 86 85 90 94 95 94 94 93 92 92 92 92 92 92 92 92 92 92 91 90 89
96 96 93 92 97 96 94 93 93 91 90 96 90 92 93 88 85 86 86 87 85 94 94 94 95 95 95 96 95 95 95 94 94 93 92 90 88 87
92 97 97 97 96 95 95 94 90 93 95 94 97 95 90 90 87 90 88 80 86 97 96 98 96 97 97 98 98 97 97 97 96 95 94 93 93 92
96 96 97 97 98 97 94 93 93 92 94 97 99 96 93 91 94 93 96 98 89 95 96 97 96 96 96 96 96 96 97 96 96 96 96 96 95 93
96 97 96 96 95 96 96 95 96 97 96 97 97 98 95 95 94 94 97 97 91 81 92 93 93 95 95 96 95 94 94 93 93 93 94 95 94 92
98 98 97 96 97 94 94 95 95 95 96 97 96 96 98 99 97 92 91 98 97 95 96 96 95 94 93 92 92 92 92 91 91 90 90 90 90 88
99 99 99 100 100 100 100 100 98 96 96 96 95 96 93 92 96 95 93 99 99 96 97 98 94 98 96 95 91 90 89 88 86 86 86 85 85 84
100 99 99 99 100 98 99 99 99 98 100 93 94 94 93 94 96 99 96 96 99 99 95 98 98 98 98 93 88 86 85 84 83 83 86 86 83 82
98 97 99 99 99 99 98 98 98 98 98 98 100 100 100 99 98 98 98 98 98 99 96 99 99 99 99 98 88 85 84 82 77 74 70 65 63 66
97 98 98 99 99 96 96 98 98 98 99 100 99 99 98 97 98 98 100 99 100 99 99 96 99 99 99 99 99 89 80 70 66 59 57 64 62 66
96 98 98 99 97 94 95 96 98 99 97 96 96 96 95 96 95 98 100 100 97 99 99 97 97 98 99 99 98 95 92 63 62 63 65 60 66 76
96 97 98 98 96 96 94 96 98 95 97 95 95 96 95 95 94 95 97 98 98 98 98 99 98 99 98 98 98 92 85 77 76 74 69 68 64 67
96 96 97 96 95 94 95 95 95 94 93 92 92 93 94 95 94 95 95 94 96 97 97 98 98 98 97 97 95 78 78 79 76 76 76 70 63 63
96 96 95 94 95 96 95 96 96 97 97 95 96 96 96 97 92 87 88 87 88 88 88 90 92 92 89 91 85 79 74 70 68 70 72 69 70 66
96 96 96 96 96 96 96 96 96 96 96 96 97 97 96 95 94 91 87 83 82 83 77 80 75 74 79 78 73 76 69 71 62 62 64 69 68 70
94 94 95 95 95 95 95 95 96 95 95 96 96 96 95 93 94 92 89 82 86 81 82 78 74 73 72 69 76 67 65 61 62 69 63 67 63 66
90 94 95 95 95 95 95 95 94 93 94 94 94 94 94 94 90 86 84 83 83 75 74 67 72 70 62 58 59 65 66 68 69 64 63 72 68 68
93 96 97 96 95 93 92 92 94 92 86 87 88 87 82 79 84 82 80 76 76 68 67 69 72 68 67 72 64 64 82 78 74 71 68 68 75 68
93 95 96 95 92 89 88 88 88 90 89 85 89 90 91 84 84 80 80 85 76 69 69 66 71 78 81 81 80 73 63 80 77 78 75 73 72 74
93 94 95 94 94 90 95 95 96 96 96 95 94 92 95 87 87 83 81 84 79 68 70 70 69 82 77 75 85 81 75 58 61 70 74 87 86 81
97 95 93 92 94 93 96 97 95 96 95 94 96 96 96 91 90 87 87 84 78 79 70 68 66 69 73 70 81 90 76 71 61 57 58 66 83 90
98 94 96 97 94 94 88 94 95 99 95 95 95 95 97 94 90 89 87 82 79 79 73 72 72 70 76 72 81 82 77 76 67 64 64 56 62 63

GFSNE_sfc_rhum_120.txt.gz
RH
85 86 87 84 85 80 72 68 85 90 95 78 87 85 83 77 84 79 78 83 94 93 91 90 88 89 89 89 89 90 90 89 89 90 90 91 90 90
90 90 90 90 89 88 84 84 86 92 95 82 87 89 91 85 84 84 77 79 95 95 94 92 91 90 89 89 90 90 90 90 92 94 94 94 94 93
91 91 90 89 92 87 88 80 90 95 98 90 86 86 96 95 92 91 82 72 60 97 96 95 94 94 93 94 93 92 92 92 92 93 92 92 92 91
92 94 92 90 93 87 87 88 90 89 95 97 94 96 94 94 92 94 86 66 63 86 96 97 96 96 96 96 96 96 96 96 96 95 95 93 93 91
91 91 88 92 95 91 88 86 76 80 91 97 96 93 94 96 96 94 95 91 86 98 99 99 98 98 98 97 98 98 98 98 97 97 97 95 94 92
92 90 89 91 89 83 83 77 80 94 97 97 93 95 93 96 94 96 99 96 90 75 92 91 97 98 98 98 98 98 98 98 97 98 98 98 97 95
95 94 92 91 94 85 79 83 89 96 98 97 96 95 98 98 97 93 92 98 95 93 96 95 94 94 95 96 96 97 97 96 96 95 95 95 95 94
98 97 95 100 99 100 100 100 96 96 97 97 95 95 92 92 93 93 93 98 99 96 95 96 91 96 93 90 95 96 96 95 94 93 92 92 91 91
96 93 95 96 99 98 100 99 99 99 100 90 93 89 90 89 92 94 94 93 90 98 94 99 97 99 98 96 95 94 94 94 92 91 91 90 90 91
95 95 96 96 96 98 99 98 97 97 98 98 100 100 100 99 94 88 91 96 98 99 96 99 100 100 100 99 94 94 94 94 94 93 91 88 85 82
96 96 95 95 98 97 96 98 99 99 96 94 95 95 95 96 98 100 100 99 100 100 100 97 99 98 99 99 100 95 96 97 93 85 79 78 76 73
94 95 97 100 98 97 97 96 97 99 98 96 95 94 94 95 95 98 100 98 100 100 100 98 98 97 98 98 98 97 97 93 90 89 88 83 81 88
94 95 96 94 94 96 97 97 98 96 96 96 95 95 95 94 95 95 97 99 100 99 100 100 97 98 97 97 96 96 96 96 93 90 83 76 71 72
98 96 98 96 95 95 95 96 94 92 94 94 94 95 95 95 95 95 96 96 96 98 100 100 98 95 95 96 95 96 96 96 96 93 90 88 89 73
94 91 87 88 89 93 95 96 96 96 97 96 96 97 97 97 96 94 95 96 95 96 97 100 95 95 95 95 94 95 92 94 91 86 68 55 53 49
91 94 89 89 86 89 92 96 97 97 96 96 96 97 96 95 96 97 96 96 95 96 97 97 98 97 96 95 91 92 90 89 85 71 73 80 72 65
95 96 93 91 89 91 90 90 91 93 94 96 95 94 93 92 94 94 93 94 94 92 93 94 95 94 93 91 91 88 88 82 75 62 53 54 49 51
83 88 89 88 88 87 88 87 86 84 87 86 88 90 91 89 89 89 88 91 90 90 89 88 89 87 78 72 68 59 54 54 49 46 45 56 50 55
83 84 85 84 81 73 73 74 78 78 80 78 79 82 84 87 83 77 73 72 79 79 80 80 81 73 76 79 61 68 57 50 51 53 44 46 58 48
68 73 76 74 65 62 62 64 67 70 69 64 73 76 77 71 72 68 67 73 64 53 50 48 53 52 67 78 78 70 64 70 63 61 53 47 47 59
64 64 70 67 67 65 77 78 80 82 80 81 78 75 81 70 70 66 68 63 54 46 51 55 62 61 54 62 81 72 61 54 54 55 52 59 54 47
72 65 66 67 72 70 78 81 77 78 75 72 79 80 80 71 70 67 67 63 52 52 49 49 48 46 51 50 63 74 60 57 49 55 57 61 71 72
77 68 71 74 70 71 66 75 74 81 74 73 72 72 77 73 65 65 65 56 50 50 46 47 46 45 44 49 52 56 64 53 43 43 54 53 57 61

GFSNE_sfc_rhum_126.txt.gz
RH
93 92 90 87 91 92 92 91 92 95 92 87 93 79 82 87 90 94 93 95 94 94 94 93 92 92 92 92 91 90 86 84 83 83 84 83 82 84
92 93 92 94 92 96 95 94 94 93 93 83 87 77 86 90 93 94 92 94 97 95 96 95 93 92 93 93 92 92 90 88 86 86 87 87 87 88
94 92 92 96 98 94 96 97 96 97 96 85 89 88 88 95 95 96 94 90 88 98 97 95 96 94 93 94 94 93 92 91 90 88 88 88 88 89
96 97 97 96 92 90 92 93 92 88 94 94 88 94 92 92 94 95 94 90 90 95 96 96 96 96 94 94 93 94 94 94 93 93 93 93 92 91
97 97 95 93 94 96 95 94 93 91 92 96 93 92 95 95 96 93 93 94 93 97 99 98 98 97 96 94 94 93 93 94 94 94 94 95 94 93
92 94 95 97 97 94 94 94 94 96 96 96 95 92 96 96 96 95 98 98 99 92 99 99 98 99 98 97 95 95 95 95 95 95 96 97 98 98
89 86 90 94 94 97 95 98 97 96 95 96 96 99 98 99 98 97 98 98 99 98 99 99 99 99 99 99 98 98 98 98 98 98 98 99 100 100
90 87 84 89 91 93 96 99 99 99 99 99 98 98 96 95 95 97 98 99 99 99 99 100 99 99 99 99 99 100 99 99 99 99 99 99 99 99
92 91 86 83 92 91 94 97 96 97 99 98 99 97 96 95 94 98 98 97 95 99 96 100 99 100 100 99 99 99 99 99 99 99 99 99 99 99
90 90 91 91 93 95 95 96 98 98 97 94 98 98 99 98 98 95 95 97 99 99 96 100 100 100 100 100 98 98 98 98 98 98 97 97 97 97
90 90 90 92 90 92 93 96 98 98 99 96 94 94 94 93 95 99 100 99 100 100 100 99 100 99 99 100 100 96 96 96 96 96 96 96 96 97
89 86 85 87 88 90 92 94 97 99 97 95 96 95 96 96 96 98 99 100 100 100 100 99 99 98 99 99 99 100 100 98 98 98 98 98 96 96
92 93 93 81 82 86 91 96 98 97 96 96 96 96 96 96 96 96 98 98 100 100 100 100 99 99 98 99 99 99 98 99 99 99 97 96 94 92
97 95 93 85 82 86 90 91 94 95 95 95 95 97 97 97 96 97 97 97 98 99 100 100 100 98 96 98 98 98 98 98 97 97 98 96 95 96
94 94 88 86 87 88 86 88 90 93 95 95 97 98 98 98 98 98 98 98 96 96 98 99 96 97 97 96 96 97 96 98 97 96 96 96 96 97
89 90 87 88 86 88 88 88 92 94 95 96 97 97 97 96 96 98 97 98 96 96 97 98 98 98 97 96 94 96 96 96 97 97 96 97 97 98
88 87 88 89 89 90 89 92 90 91 94 95 95 95 94 94 95 97 97 97 96 96 96 96 97 96 97 96 96 96 97 97 98 98 97 96 97 98
83 90 91 90 88 87 88 89 90 88 92 94 94 95 95 96 94 91 91 95 96 96 96 97 96 94 91 95 95 96 97 96 97 98 98 96 97 98
86 89 90 90 87 84 87 86 88 87 86 84 88 88 87 88 89 92 93 92 93 91 93 93 97 93 91 94 96 95 95 96 96 96 96 97 98 97
79 84 88 87 84 84 86 89 87 90 88 86 91 92 91 91 89 82 80 92 87 86 90 89 89 94 92 98 97 95 95 97 97 96 96 91 90 81
81 84 85 85 87 85 93 91 94 89 92 94 92 91 92 94 94 93 92 83 84 70 70 75 74 89 84 82 95 95 74 62 73 86 81 92 88 81
88 84 88 88 88 86 87 92 89 92 92 93 92 94 92 92 94 92 90 92 86 88 75 73 63 71 84 75 91 95 85 78 61 57 57 61 92 98
90 89 90 91 88 86 85 89 92 92 89 89 93 91 92 94 89 90 92 87 80 84 80 79 72 68 66 70 79 86 87 92 81 80 84 55 51 53

GFSNE_sfc_rhum_129.txt.gz
RH
94 93 92 90 96 97 96 97 96 94 95 95 96 92 91 90 92 94 93 97 95 95 95 94 92 92 93 93 92 89 87 85 84 84 82 80 78 80
94 95 94 94 97 96 98 99 99 98 98 94 95 96 87 91 90 93 94 96 98 96 96 95 96 95 94 95 95 92 91 90 88 87 85 84 84 82
94 95 94 94 95 98 99 96 94 94 95 84 95 94 95 93 95 94 96 97 95 99 97 96 96 96 96 96 96 95 93 93 91 89 87 86 85 86
96 98 98 98 98 97 97 96 93 88 92 85 95 97 95 95 91 94 96 96 96 98 100 99 97 97 97 98 98 97 96 96 94 93 91 90 88 86
95 95 96 96 97 97 97 96 96 93 97 97 92 96 93 96 98 97 96 96 96 95 100 100 100 98 98 98 99 98 97 96 96 96 94 94 93 92
92 92 93 94 96 96 95 97 96 97 93 96 94 92 95 96 92 95 98 97 97 97 100 100 99 99 99 99 99 99 98 97 96 96 96 98 98 97
89 86 90 91 92 95 95 96 96 97 98 97 97 97 98 99 98 96 96 95 99 99 99 99 99 98 98 99 98 98 98 97 96 96 96 97 97 97
90 88 82 87 89 92 97 97 97 96 97 98 97 96 88 97 97 97 97 99 99 99 99 99 99 99 99 99 99 100 99 98 97 97 97 96 97 100
91 91 86 82 89 88 92 93 95 95 99 96 98 97 97 97 97 98 96 97 97 99 98 100 99 100 99 99 99 99 100 99 99 99 99 100 100 100
91 88 90 90 89 89 89 92 92 95 98 95 98 99 99 98 97 94 97 98 99 100 98 100 100 100 100 100 98 98 99 99 99 99 99 100 100 100
84 85 86 87 86 89 89 91 92 95 90 90 93 93 93 95 94 95 99 100 100 100 100 100 100 100 100 100 100 98 98 98 98 98 98 98 98 98
89 91 84 82 82 85 89 93 97 98 96 94 93 92 91 92 91 97 98 99 100 100 100 100 99 98 100 99 99 100 100 97 97 96 97 97 96 98
95 95 94 84 81 83 85 92 97 97 97 97 95 93 92 93 94 96 97 99 99 100 100 100 99 99 98 99 99 99 99 99 99 99 97 98 94 91
98 95 93 83 84 80 87 88 90 96 96 95 94 95 96 97 96 98 98 97 98 99 98 100 100 98 98 98 98 98 98 99 97 98 98 95 94 94
93 85 84 83 84 92 80 84 92 93 95 93 94 95 98 97 95 94 95 97 97 97 97 98 99 99 98 97 97 97 97 98 97 96 96 96 96 96
91 87 88 86 91 94 96 91 92 94 97 98 98 98 97 96 96 96 96 97 94 94 96 97 98 98 98 98 97 97 96 97 97 97 96 97 98 98
87 91 92 92 94 92 91 91 92 93 96 97 97 98 98 98 97 97 96 97 95 95 95 96 97 96 96 97 97 97 97 97 98 97 97 97 98 98
89 96 96 96 95 96 96 96 96 94 94 94 96 96 96 98 98 96 97 97 97 96 96 97 98 96 93 94 96 96 97 96 97 97 97 96 97 98
92 96 99 98 96 92 94 93 96 96 94 96 97 94 95 90 92 90 97 95 95 95 93 90 96 88 90 94 96 96 96 96 96 97 97 97 97 97
89 93 95 94 92 90 90 92 92 93 92 92 94 95 96 95 96 88 85 96 97 89 89 87 93 88 92 99 97 95 95 97 96 97 96 95 97 98
92 92 94 94 94 91 94 93 95 95 94 94 94 94 95 97 96 92 89 94 90 83 84 82 94 91 82 86 95 95 87 84 88 94 95 96 95 94
98 96 92 93 96 95 96 95 93 94 94 92 95 95 95 96 95 96 93 94 91 94 84 83 72 81 84 77 92 94 79 80 65 62 58 66 96 98
99 99 99 97 96 94 93 96 94 96 95 95 94 94 94 95 97 92 93 89 85 84 86 85 74 82 77 78 86 96 91 91 81 78 80 57 52 56

GFSNE_sfc_rhum_132.txt.gz
RH
88 89 88 92 94 92 94 96 94 97 97 96 96 96 94 95 94 95 96 96 99 98 98 97 95 94 93 93 92 89 86 85 84 83 81 80 79 79
94 94 94 95 96 95 94 95 95 96 97 96 96 96 97 96 95 96 94 97 100 99 98 98 97 95 94 94 95 94 92 89 88 86 85 84 83 82
96 96 93 95 97 97 99 98 99 95 94 92 95 95 98 97 94 98 96 97 93 100 99 98 98 97 96 96 96 97 95 94 91 89 88 86 85 84
96 97 96 94 97 98 99 97 98 98 95 89 90 95 98 94 90 95 96 94 95 99 100 99 98 98 98 98 98 98 99 98 95 94 91 90 88 85
95 95 95 94 97 97 96 98 98 97 95 95 92 95 96 98 97 95 95 95 96 99 100 100 100 98 98 98 98 99 99 99 99 98 96 95 92 90
94 96 95 94 96 97 96 95 92 96 97 99 96 95 96 96 93 92 98 96 96 95 100 100 100 100 99 99 99 98 99 99 99 99 99 98 98 95
95 87 94 91 93 98 93 96 94 94 95 98 97 98 97 98 97 92 95 92 97 95 98 98 99 99 98 100 98 99 99 99 98 99 99 99 99 98
98 92 90 92 93 97 95 96 97 96 96 97 97 98 95 98 95 97 98 97 99 99 100 98 99 98 98 99 100 100 100 99 99 98 98 99 99 99
94 94 89 87 90 88 90 90 92 97 99 96 96 97 97 97 97 95 95 99 99 99 100 99 100 99 100 99 97 98 100 100 99 99 99 99 100 100
88 87 88 89 90 92 89 90 92 94 94 94 98 98 98 97 96 94 96 97 97 98 100 100 100 100 100 100 97 96 97 99 99 99 99 99 100 100
88 87 84 86 85 87 88 91 94 95 90 84 84 85 87 87 90 93 97 99 100 100 100 100 100 100 100 100 100 97 97 98 99 99 99 99 99 99
90 93 89 85 84 83 90 93 96 98 98 95 94 92 92 93 92 97 98 99 99 100 100 100 100 99 100 99 99 100 100 97 97 97 98 99 99 99
93 94 92 83 77 79 87 92 96 96 96 97 98 95 96 93 94 96 98 99 99 99 97 99 100 100 98 98 98 98 99 100 99 99 97 97 95 93
94 93 89 79 85 82 85 84 88 95 96 91 91 93 94 95 96 98 98 99 99 99 97 99 99 99 98 98 97 98 98 98 98 99 98 95 97 99
88 84 82 80 82 88 79 81 95 96 91 92 94 98 99 97 97 93 96 96 96 95 95 98 99 99 99 98 97 98 98 98 98 98 98 98 97 96
89 90 91 88 90 92 91 91 93 95 100 100 99 99 98 98 98 98 100 97 98 96 92 94 96 98 98 98 98 98 98 97 98 98 98 98 98 98
90 88 91 92 93 93 92 91 93 94 96 97 98 97 98 98 97 98 98 98 99 99 98 96 96 94 95 97 97 98 98 98 98 98 97 97 98 98
89 93 95 96 96 95 94 93 91 92 93 94 95 96 96 96 95 95 98 99 100 99 100 99 99 98 95 89 94 97 97 97 98 98 98 96 97 98
93 95 98 98 95 92 92 92 94 92 89 91 93 94 94 93 89 87 90 98 98 98 98 98 99 97 97 99 96 90 98 97 97 97 97 97 97 97
94 96 95 96 93 91 91 92 91 92 91 89 92 93 94 94 95 87 85 98 97 91 96 95 98 97 98 98 99 96 94 97 96 96 96 96 97 97
98 97 98 97 97 96 99 97 98 96 96 95 94 93 95 94 95 94 93 93 95 86 85 88 96 87 83 87 95 96 94 95 93 94 96 96 95 95
99 99 99 99 99 99 100 100 97 95 94 94 96 95 95 94 95 97 96 98 95 96 93 87 77 84 87 83 93 96 93 94 72 65 64 78 96 97
99 99 100 100 99 100 98 100 100 100 98 97 96 94 95 95 94 95 95 91 87 89 91 91 87 90 86 83 90 94 87 87 78 74 82 58 62 77